Change the Weather History Date:

Thursday, January 30, 2014

  Actual Average Record
Temperature  
Mean Temperature 28 °F -  
Max Temperature 41 °F 31 °F 66 °F (2012)
Min Temperature 14 °F 14 °F -4 °F (2004)
Degree Days  
Heating Degree Days 38    
Moisture  
Dew Point 11 °F    
Average Humidity 48    
Maximum Humidity 64    
Minimum Humidity 30    
Precipitation  
Precipitation 0.00 in - - ()
Sea Level Pressure  
Sea Level Pressure 29.72 in    
Wind  
Wind Speed 20 mph (WNW)    
Max Wind Speed 30 mph    
Max Gust Speed 39 mph    
Visibility 10 miles    
Events Snow    
Averages and records for this station are not official NWS values.
T = Trace of Precipitation, MM = Missing Value Source: NWS Daily Summary

Daily Weather History Graph

Daily Weather History Graph

Search for Another Location

Airport or City:

Trip Planner

Search our weather history database for the weather conditions in past years. The results will help you decide how hot, cold, wet, or windy it might be!

Date:

Astronomy

Jan. 30, 2014 Rise Set
Actual Time 7:33 AM CST 5:33 PM CST
Civil Twilight 7:04 AM CST 6:03 PM CST
Nautical Twilight 6:30 AM CST 6:36 PM CST
Astronomical Twilight 5:58 AM CST 7:09 PM CST
Moon 6:59 AM CST (1/30) 5:47 PM CST (1/30)
Length of Visible Light 10h 59m
Length of Day
10h 00m
Waning Crescent, 0% of the Moon is Illuminated
Jan 30
Waning Crescent
Jan 30
New
Feb 6
First Quarter
Feb 14
Full
Feb 22
Last Quarter

Hourly Weather History & Observations

Time (CST) Temp. Windchill Dew Point Humidity Pressure Visibility Wind Dir Wind Speed Gust Speed Precip Events Conditions
12:15 AM 35.6 °F 24.2 °F 6.8 °F 30% 29.62 in 10.0 mi South 21.9 mph 28.8 mph N/A   Clear
12:35 AM 35.6 °F 24.5 °F 6.8 °F 30% 29.62 in 10.0 mi SSW 20.7 mph 28.8 mph N/A   Clear
12:55 AM 35.6 °F 24.2 °F 6.8 °F 30% 29.61 in 10.0 mi South 21.9 mph 29.9 mph N/A   Clear
1:15 AM 35.6 °F 25.2 °F 6.8 °F 30% 29.60 in 10.0 mi South 18.4 mph 27.6 mph N/A   Clear
1:35 AM 35.6 °F 25.5 °F 6.8 °F 30% 29.59 in 10.0 mi South 17.3 mph 26.5 mph N/A   Partly Cloudy
1:55 AM 35.6 °F 24.8 °F 6.8 °F 30% 29.59 in 10.0 mi South 19.6 mph - N/A   Mostly Cloudy
2:15 AM 35.6 °F 24.5 °F 6.8 °F 30% 29.57 in 10.0 mi South 20.7 mph - N/A   Overcast
2:35 AM 35.6 °F 24.5 °F 6.8 °F 30% 29.56 in 10.0 mi South 20.7 mph 29.9 mph N/A   Overcast
2:55 AM 35.6 °F 24.5 °F 6.8 °F 30% 29.55 in 10.0 mi South 20.7 mph 29.9 mph N/A   Overcast
3:15 AM 35.6 °F 25.2 °F 8.6 °F 33% 29.54 in 10.0 mi South 18.4 mph 32.2 mph N/A   Overcast
3:35 AM 35.6 °F 25.2 °F 8.6 °F 33% 29.52 in 10.0 mi South 18.4 mph 28.8 mph N/A   Overcast
3:55 AM 35.6 °F 24.0 °F 8.6 °F 33% 29.48 in 10.0 mi South 23.0 mph 29.9 mph N/A   Overcast
4:15 AM 35.6 °F 23.7 °F 8.6 °F 33% 29.46 in 10.0 mi South 24.2 mph 31.1 mph N/A   Overcast
4:35 AM 35.6 °F 23.4 °F 8.6 °F 33% 29.45 in 9.0 mi South 25.3 mph 34.5 mph N/A   Overcast
4:55 AM 35.6 °F 24.2 °F 8.6 °F 33% 29.46 in 10.0 mi South 21.9 mph 34.5 mph N/A   Overcast
5:15 AM 35.6 °F 24.0 °F 8.6 °F 33% 29.46 in 10.0 mi South 23.0 mph 34.5 mph N/A   Overcast
5:35 AM 35.6 °F 23.7 °F 10.4 °F 35% 29.48 in 10.0 mi SSW 24.2 mph 36.8 mph N/A   Mostly Cloudy
5:55 AM 35.6 °F 23.7 °F 10.4 °F 35% 29.46 in 10.0 mi SSW 24.2 mph 33.4 mph N/A   Mostly Cloudy
6:15 AM 35.6 °F 23.4 °F 10.4 °F 35% 29.45 in 10.0 mi SSW 25.3 mph 34.5 mph N/A   Mostly Cloudy
6:35 AM 35.6 °F 23.2 °F 10.4 °F 35% 29.44 in 10.0 mi South 26.5 mph 35.7 mph N/A   Mostly Cloudy
6:55 AM 35.6 °F 23.0 °F 10.4 °F 35% 29.45 in 10.0 mi SSW 27.6 mph 36.8 mph N/A   Overcast
7:15 AM 35.6 °F 22.7 °F 12.2 °F 38% 29.46 in 10.0 mi SSW 28.8 mph 34.5 mph N/A   Overcast
7:35 AM 35.6 °F 23.7 °F 15.8 °F 44% 29.48 in 10.0 mi SSW 24.2 mph 36.8 mph N/A   Overcast
7:55 AM 33.8 °F 21.3 °F 17.6 °F 52% 29.48 in 10.0 mi SSW 24.2 mph 29.9 mph N/A   Overcast
8:15 AM 33.8 °F 21.9 °F 17.6 °F 52% 29.48 in 10.0 mi SSW 21.9 mph 31.1 mph N/A   Overcast
8:35 AM 35.6 °F 23.2 °F 17.6 °F 48% 29.47 in 10.0 mi SSW 26.5 mph 36.8 mph N/A   Overcast
8:55 AM 35.6 °F 24.5 °F 17.6 °F 48% 29.50 in 10.0 mi SSW 20.7 mph 31.1 mph N/A   Overcast
9:15 AM 35.6 °F 24.5 °F 17.6 °F 48% 29.51 in 10.0 mi SW 20.7 mph 28.8 mph N/A   Overcast
9:35 AM 35.6 °F 24.8 °F 17.6 °F 48% 29.52 in 10.0 mi SW 19.6 mph 29.9 mph N/A   Overcast
9:55 AM 37.4 °F 26.6 °F 17.6 °F 45% 29.53 in 10.0 mi SW 21.9 mph 28.8 mph N/A   Overcast
10:15 AM 41.0 °F 31.4 °F 15.8 °F 36% 29.54 in 10.0 mi SW 21.9 mph 28.8 mph N/A   Overcast
10:35 AM 41.0 °F 31.4 °F 23.0 °F 49% 29.57 in 10.0 mi West 21.9 mph 39.1 mph N/A   Overcast
10:55 AM 39.2 °F 27.8 °F 26.6 °F 61% 29.59 in 10.0 mi WNW 27.6 mph 34.5 mph N/A   Mostly Cloudy
11:15 AM 39.2 °F 27.6 °F 26.6 °F 61% 29.60 in 10.0 mi NW 28.8 mph 35.7 mph N/A   Mostly Cloudy
11:35 AM 35.6 °F 22.5 °F 23.0 °F 60% 29.63 in 10.0 mi NW 29.9 mph 39.1 mph N/A   Partly Cloudy
11:55 AM 32.0 °F 18.1 °F 19.4 °F 60% 29.66 in 10.0 mi NW 27.6 mph 39.1 mph N/A   Clear
12:15 PM 28.4 °F 14.7 °F 17.6 °F 64% 29.69 in 10.0 mi NNW 21.9 mph 29.9 mph N/A   Scattered Clouds
12:35 PM 30.2 °F 17.8 °F 17.6 °F 60% 29.70 in 10.0 mi NNW 19.6 mph 27.6 mph N/A   Mostly Cloudy
12:55 PM 30.2 °F 16.2 °F 15.8 °F 55% 29.72 in 10.0 mi NW 25.3 mph 31.1 mph N/A   Partly Cloudy
1:15 PM 30.2 °F 17.8 °F 15.8 °F 55% 29.73 in 10.0 mi NNW 19.6 mph 31.1 mph N/A   Partly Cloudy
1:35 PM 30.2 °F 16.5 °F 15.8 °F 55% 29.74 in 10.0 mi NNW 24.2 mph 33.4 mph N/A   Clear
1:55 PM 28.4 °F 14.4 °F 14.0 °F 55% 29.75 in 10.0 mi NNW 23.0 mph 32.2 mph N/A   Clear
2:15 PM 30.2 °F 18.1 °F 14.0 °F 51% 29.76 in 10.0 mi NNW 18.4 mph 31.1 mph N/A   Clear
2:35 PM 28.4 °F 15.1 °F 14.0 °F 55% 29.79 in 10.0 mi NNW 20.7 mph 28.8 mph N/A   Clear
2:55 PM 28.4 °F 15.1 °F 14.0 °F 55% 29.80 in 10.0 mi NNW 20.7 mph 26.5 mph N/A   Clear
3:15 PM 28.4 °F 15.4 °F 12.2 °F 51% 29.81 in 10.0 mi NNW 19.6 mph 27.6 mph N/A   Clear
3:35 PM 28.4 °F 16.2 °F 12.2 °F 51% 29.82 in 10.0 mi North 17.3 mph 24.2 mph N/A   Clear
3:55 PM 28.4 °F 16.6 °F 12.2 °F 51% 29.82 in 10.0 mi North 16.1 mph 24.2 mph N/A   Clear
4:15 PM 28.4 °F 17.5 °F 12.2 °F 51% 29.85 in 10.0 mi NNW 13.8 mph - N/A   Clear
4:35 PM 26.6 °F 15.2 °F 12.2 °F 55% 29.86 in 10.0 mi North 13.8 mph 21.9 mph N/A   Clear
4:55 PM 24.8 °F 14.0 °F 10.4 °F 54% 29.87 in 10.0 mi North 11.5 mph - N/A   Clear
5:15 PM 24.8 °F 14.0 °F 10.4 °F 54% 29.88 in 10.0 mi North 11.5 mph - N/A   Clear
5:35 PM 23.0 °F 11.7 °F 10.4 °F 59% 29.91 in 10.0 mi NNW 11.5 mph - N/A   Clear
5:55 PM 21.2 °F 10.9 °F 8.6 °F 58% 29.92 in 10.0 mi North 9.2 mph - N/A   Clear
6:15 PM 19.4 °F 10.4 °F 6.8 °F 58% 29.93 in 8.0 mi NNE 6.9 mph - N/A   Clear
6:35 PM 17.6 °F 8.2 °F 6.8 °F 63% 29.96 in 5.0 mi NNW 6.9 mph - N/A   Haze
6:55 PM 17.6 °F 5.7 °F 6.8 °F 63% 29.97 in 10.0 mi North 10.4 mph - N/A Snow Light Snow
7:15 PM 17.6 °F 5.7 °F 5.0 °F 58% 29.98 in 10.0 mi North 10.4 mph - N/A   Clear
7:35 PM 17.6 °F 5.0 °F 5.0 °F 58% 30.00 in 10.0 mi North 11.5 mph - N/A   Clear
7:55 PM 17.6 °F 4.3 °F 5.0 °F 58% 29.99 in 10.0 mi North 12.7 mph - N/A   Clear
8:15 PM 17.6 °F 2.7 °F 5.0 °F 58% 29.99 in 10.0 mi North 16.1 mph - N/A   Clear
8:35 PM 15.8 °F -0.2 °F 5.0 °F 62% 30.00 in 10.0 mi North 17.3 mph - N/A   Clear
8:55 PM 15.8 °F 0.9 °F 3.2 °F 58% 30.01 in 10.0 mi North 15.0 mph - N/A   Clear
9:15 PM 15.8 °F 1.4 °F 3.2 °F 58% 30.01 in 10.0 mi North 13.8 mph 20.7 mph N/A   Scattered Clouds
9:35 PM 15.8 °F 2.7 °F 3.2 °F 58% 30.03 in 10.0 mi North 11.5 mph 18.4 mph N/A   Mostly Cloudy
9:55 PM 15.8 °F 0.9 °F 3.2 °F 58% 30.04 in 10.0 mi North 15.0 mph - N/A   Overcast
10:15 PM 15.8 °F 2.1 °F 3.2 °F 58% 30.03 in 10.0 mi North 12.7 mph 18.4 mph N/A   Overcast
10:35 PM 15.8 °F 4.2 °F 3.2 °F 58% 30.04 in 10.0 mi North 9.2 mph - N/A   Overcast
10:55 PM 15.8 °F 3.4 °F 3.2 °F 58% 30.06 in 10.0 mi North 10.4 mph - N/A   Overcast
11:15 PM 14.0 °F -0.2 °F 3.2 °F 62% 30.07 in 10.0 mi North 12.7 mph - N/A   Overcast
11:35 PM 14.0 °F 1.2 °F 3.2 °F 62% 30.06 in 10.0 mi North 10.4 mph - N/A   Overcast
11:55 PM 14.0 °F 0.5 °F 3.2 °F 62% 30.07 in 10.0 mi North 11.5 mph - N/A   Overcast